STARLINK-1416 (45692 NORAD) Tracking and Keplerian Element Data

This shows tracking and keplerian element data for the satellite.

Feedback or suggestion? Click here.




ElementValue
Catalog45692
NameSTARLINK-1416
Epoch Orbit552
Epoch Day185.50001157
Epoch Year2020
RAAN24.9002
Inclination52.9998
Eccentricity0.0001098
Argument of Perigee83.5852
Mean Anonmoly17.6485
Mean Motion15.62770581
Decay Rate-0.00041968
L11 45692U 20035AM 20185.50001157 -.00041968 00000-0 -45455-3 0 9997
L22 45692 52.9998 24.9002 0001098 83.5852 17.6485 15.62770581 5521

Live tracking and technical data element details for STARLINK-1416 (NORAD 45692). STARLINK-1416 can be tracked NOW for your location showing map with azimuth and elevation plus other details from your city location.

Track the satellite on the map from your city or location and see movement details for azimuth, elevation, latitude, longitude, range, height, and movement on the map or in text.







IsCatalogInMostPopularTable: catalog: 45692, numindb: 4
Update: records affected: 1



GetName: 45692 STARLINK-1416

Hit Count: updated at: Sat, 04 Jul 2020 02:48:15 GMT